Tracking 17155 objects as of 28-July-2015
HD Live streaming from Space Station

SL-16 DEB

Track SL-16 DEB now!
10-day predictions
SL-16 DEB is classified as:


NORAD ID: 22453
Int'l Code: 1992-093ES
Perigee: 825.2 km
Apogee: 1,082.8 km
Inclination: 70.8 °
Period: 104.0 minutes
Semi major axis: 7325 km
RCS: 0.0192 m2 (small)
Launch date: December 25, 1992
Source: Commonwealth of Independent States (former USSR) (CIS)

Note: This is SATELLITE DEBRIS
Your satellite tracking list
Your tracking list is empty





NASA's NSSDC Master Catalog

Two Line Element Set (TLE):
1 22453U 92093ES  15208.28622664  .00000161  00000-0  16337-3 0  9992
2 22453 070.8040 261.0405 0175882 325.7172 102.8679 13.84813362136140

Source of the keplerian elements: AFSPC

N2YO: 454